STELLA

Last updated on Wed Jul 02 2025 00:03:33 GMT+0000 (Coordinated Universal Time)

1 22824U 93061B 25182.60358095 -.00000046 00000+0 -39202-7 0 9995 2 22824 98.8235 239.6166 0006543 167.2819 5.4468 14.27456772654759
UTC large
Height (km)
Speed (km/s)
/
Latitude / Longitude
Inclination (degrees)
Orbital Period (minutes)
Azimuth
Elevation
Range (km)
Doppler Factor

Next 0 passes for location: London (51.5072 / 0.1276)

Sorry there are no passes over London.